Time+07,TemperatureF,Dew PointF,Humidity,Sea Level PressureIn,VisibilityMPH,Wind Direction,Wind SpeedMPH,Gust SpeedMPH,PrecipitationIn,Events,Conditions,WindDirDegrees,DateUTC
7:00 AM,78.8,73.4,83,29.83,-9999.0,Calm,Calm,-,N/A,,Clear,0,2012-11-30 00:00:00
7:30 AM,78.8,73.4,83,29.83,6.2,ENE,4.6,-,N/A,,Scattered Clouds,70,2012-11-30 00:30:00
8:00 AM,80.6,73.4,79,29.83,6.2,East,4.6,-,N/A,,Scattered Clouds,100,2012-11-30 01:00:00
8:30 AM,80.6,73.4,79,29.86,6.2,ESE,4.6,-,N/A,,Mostly Cloudy,110,2012-11-30 01:30:00
9:00 AM,82.4,73.4,74,29.86,6.2,ESE,9.2,-,N/A,,Mostly Cloudy,120,2012-11-30 02:00:00
9:30 AM,84.2,75.2,74,29.86,6.2,East,8.1,-,N/A,,Scattered Clouds,100,2012-11-30 02:30:00
10:00 AM,84.2,75.2,74,29.86,6.2,East,11.5,-,N/A,,Scattered Clouds,100,2012-11-30 03:00:00
10:30 AM,84.2,75.2,74,29.86,6.2,ESE,5.8,-,N/A,,Mostly Cloudy,120,2012-11-30 03:30:00
11:30 AM,86.0,75.2,70,29.83,6.2,East,5.8,-,N/A,,Mostly Cloudy,100,2012-11-30 04:30:00
12:00 PM,84.2,73.4,70,29.80,6.2,ESE,5.8,-,N/A,,Scattered Clouds,120,2012-11-30 05:00:00
12:30 PM,87.8,75.2,66,29.80,6.2,SSE,5.8,-,N/A,,Scattered Clouds,150,2012-11-30 05:30:00
1:00 PM,84.2,75.2,74,29.77,6.2,SSE,4.6,-,N/A,,Scattered Clouds,150,2012-11-30 06:00:00
2:00 PM,87.8,75.2,66,29.74,6.2,SW,4.6,-,N/A,,Scattered Clouds,220,2012-11-30 07:00:00
2:30 PM,89.6,75.2,62,29.74,6.2,South,4.6,-,N/A,,Scattered Clouds,180,2012-11-30 07:30:00
3:00 PM,89.6,75.2,62,29.74,6.2,South,6.9,-,N/A,,Scattered Clouds,170,2012-11-30 08:00:00
3:30 PM,87.8,75.2,66,29.71,6.2,SSW,6.9,-,N/A,,Partly Cloudy,210,2012-11-30 08:30:00
4:00 PM,87.8,75.2,66,29.71,6.2,SSW,5.8,-,N/A,,Scattered Clouds,200,2012-11-30 09:00:00
4:30 PM,87.8,75.2,66,29.74,6.2,South,5.8,-,N/A,,Scattered Clouds,190,2012-11-30 09:30:00
5:00 PM,86.0,75.2,70,29.74,6.2,South,4.6,-,N/A,,Scattered Clouds,190,2012-11-30 10:00:00
5:30 PM,84.2,75.2,74,29.74,6.2,South,3.5,-,N/A,,Partly Cloudy,170,2012-11-30 10:30:00
6:00 PM,82.4,77.0,84,29.77,6.2,SSW,2.3,-,N/A,,Partly Cloudy,200,2012-11-30 11:00:00
6:30 PM,82.4,77.0,84,29.77,5.6,Calm,Calm,-,N/A,,Partly Cloudy,0,2012-11-30 11:30:00
7:00 PM,80.6,77.0,89,29.77,5.6,Calm,Calm,-,N/A,,Unknown,0,2012-11-30 12:00:00
7:30 PM,80.6,78.8,94,29.80,5.6,Calm,Calm,-,N/A,,Unknown,0,2012-11-30 12:30:00
8:00 PM,82.4,77.0,84,29.80,5.6,Calm,Calm,-,N/A,,Unknown,0,2012-11-30 13:00:00
8:30 PM,80.6,77.0,89,29.83,5.6,Calm,Calm,-,N/A,,Unknown,0,2012-11-30 13:30:00
9:00 PM,80.6,77.0,89,29.83,5.6,Calm,Calm,-,N/A,,Unknown,0,2012-11-30 14:00:00
9:30 PM,80.6,77.0,89,29.83,5.6,Calm,Calm,-,N/A,,Unknown,0,2012-11-30 14:30:00
10:00 PM,80.6,77.0,89,29.83,5.6,Calm,Calm,-,N/A,,Unknown,0,2012-11-30 15:00:00
10:30 PM,80.6,77.0,89,29.83,5.6,Calm,Calm,-,N/A,,Unknown,0,2012-11-30 15:30:00
11:00 PM,78.8,77.0,94,29.83,5.6,Calm,Calm,-,N/A,,Unknown,0,2012-11-30 16:00:00
11:30 PM,78.8,77.0,94,29.83,5.6,Calm,Calm,-,N/A,,Unknown,0,2012-11-30 16:30:00